Location: Castelbiague
(43.0361°N, 0.9246°E)
Time: 15:31:39
(UTC+00:00)

BREEZE-M DEB (TANK) - Pass Details

Date: 17 June 2021
Orbit: 319 x 12038 km, 49.6° (Epoch: 30 July)

Event Time Altitude Azimuth Distance (km) Brightness Sun altitude
Rises 20:49:25 0° 220° (SW) 2,107 5.0 -10.7°
Reaches altitude 10° 20:51:13 10° 210° (SSW) 1,218 3.7 -11.0°
Maximum altitude 20:53:20 35° 139° (SE) 601 1.8 -11.2°
Drops below altitude 10° 20:56:22 10° 70° (ENE) 1,766 4.5 -11.6°
Sets 20:59:39 0° 63° (ENE) 3,388 6.0 -12.0°
